| time (UTC) | temp C | wind direction | speed KPH | gust KPH | rain 1hr cm | rain 24hr cm | rain mn cm | humidity % | barometer mb |
| 20260903180111 | 17 | 238 | 0.0 | 3.2 | 0.00 | 0.03 | 0.03 | 84 | 1020.1 |
| 20260903173105 | 18 | 238 | 1.6 | 4.8 | 0.00 | 0.03 | 0.03 | 82 | 1020.0 |
| 20260903171555 | 19 | 238 | 1.6 | 4.8 | 0.00 | 0.03 | 0.03 | 81 | 1019.9 |
| 20260903164555 | 20 | 238 | 1.6 | 4.8 | 0.00 | 0.03 | 0.03 | 76 | 1019.9 |
| 20260903161741 | 22 | 250 | 3.2 | 8.0 | 0.00 | 0.03 | 0.03 | 69 | 1019.6 |
| 20260903160108 | 22 | 26 | 1.6 | 6.4 | 0.00 | 0.03 | 0.03 | 69 | 1019.6 |
| 20260903153125 | 23 | 218 | 1.6 | 6.4 | 0.00 | 0.03 | 0.03 | 63 | 1019.4 |
| 20260903151546 | 24 | 199 | 1.6 | 9.7 | 0.00 | 0.03 | 0.03 | 63 | 1019.2 |
| 20260903144602 | 25 | 220 | 0.0 | 11.3 | 0.00 | 0.03 | 0.03 | 60 | 1019.5 |
| 20260903143052 | 25 | 223 | 3.2 | 11.3 | 0.00 | 0.03 | 0.03 | 57 | 1019.5 |
| 20260903140044 | 24 | 134 | 1.6 | 9.7 | 0.00 | 0.03 | 0.03 | 58 | 1020.1 |
| 20260903133057 | 25 | 207 | 1.6 | 12.9 | 0.00 | 0.03 | 0.03 | 55 | 1020.3 |
| 20260903131542 | 25 | 108 | 1.6 | 8.0 | 0.00 | 0.03 | 0.03 | 57 | 1020.1 |
| 20260903124603 | 23 | 132 | 0.0 | 6.4 | 0.00 | 0.03 | 0.03 | 60 | 1020.1 |
| 20260903121602 | 24 | 194 | 1.6 | 14.5 | 0.00 | 0.03 | 0.03 | 57 | 1020.5 |
| 20260903120041 | 24 | 225 | 1.6 | 19.3 | 0.00 | 0.03 | 0.03 | 59 | 1020.5 |
| 20260903113102 | 24 | 158 | 3.2 | 12.9 | 0.00 | 0.03 | 0.03 | 62 | 1020.7 |
| 20260903111554 | 24 | 236 | 3.2 | 9.7 | 0.00 | 0.03 | 0.03 | 60 | 1020.7 |
| 20260903104548 | 23 | 132 | 1.6 | 9.7 | 0.00 | 0.03 | 0.03 | 60 | 1021.0 |
| 20260903103040 | 23 | 229 | 3.2 | 9.7 | 0.00 | 0.03 | 0.03 | 59 | 1021.0 |
| 20260903101537 | 23 | 218 | 3.2 | 9.7 | 0.00 | 0.03 | 0.03 | 62 | 1020.9 |
| 20260903094604 | 23 | 206 | 1.6 | 12.9 | 0.00 | 0.03 | 0.03 | 67 | 1021.5 |
| 20260903093117 | 22 | 40 | 3.2 | 8.0 | 0.00 | 0.03 | 0.03 | 67 | 1021.4 |
| 20260903091539 | 22 | 156 | 1.6 | 4.8 | 0.00 | 0.03 | 0.03 | 67 | 1021.5 |
| 20260903084610 | 21 | 75 | 0.0 | 3.2 | 0.00 | 0.03 | 0.03 | 73 | 1021.4 |
| 20260903083052 | 21 | 50 | 0.0 | 3.2 | 0.00 | 0.03 | 0.03 | 75 | 1021.4 |
| 20260903080113 | 19 | 214 | 0.0 | 1.6 | 0.00 | 0.03 | 0.03 | 79 | 1021.4 |
| 20260903074541 | 18 | 214 | 0.0 | 3.2 | 0.00 | 0.03 | 0.03 | 86 | 1021.4 |
| 20260903071612 | 16 | 214 | 0.0 | 3.2 | 0.00 | 0.03 | 0.03 | 89 | 1021.7 |
| 20260903070037 | 15 | 214 | 0.0 | 3.2 | 0.03 | 0.03 | 0.03 | 95 | 1021.5 |
| 20260903063046 | 13 | 214 | 1.6 | 3.2 | 0.03 | 0.03 | 0.03 | 96 | 1021.4 |
| 20260903060048 | 11 | 214 | 0.0 | 1.6 | 0.00 | 0.00 | 0.00 | 95 | 1021.4 |
| 20260903054534 | 10 | 214 | 0.0 | 3.2 | 0.00 | 0.00 | 0.00 | 95 | 1021.1 |
| 20260903051757 | 9 | 214 | 0.0 | 3.2 | 0.00 | 0.00 | 0.00 | 94 | 1020.7 |
| 20260903050114 | 8 | 214 | 0.0 | 3.2 | 0.00 | 0.00 | 0.00 | 94 | 1020.6 |
| 20260903043043 | 9 | 214 | 0.0 | 3.2 | 0.00 | 0.00 | 0.00 | 94 | 1020.4 |
| 20260903040105 | 10 | 214 | 0.0 | 3.2 | 0.00 | 0.00 | 0.00 | 95 | 1020.5 |
| 20260903034557 | 8 | 214 | 0.0 | 0.0 | 0.00 | 0.00 | 0.00 | 94 | 1020.6 |
| 20260903031554 | 9 | 214 | 0.0 | 0.0 | 0.00 | 0.00 | 0.00 | 95 | 1020.7 |
| 20260903030045 | 8 | 214 | 0.0 | 0.0 | 0.00 | 0.00 | 0.00 | 93 | 1020.8 |
| 20260903023052 | 8 | 214 | 0.0 | 0.0 | 0.00 | 0.00 | 0.00 | 94 | 1020.9 |
| 20260903020108 | 8 | 214 | 0.0 | 0.0 | 0.00 | 0.00 | 0.00 | 93 | 1020.7 |
| 20260903014556 | 9 | 214 | 0.0 | 0.0 | 0.00 | 0.00 | 0.00 | 93 | 1020.8 |
| 20260903011553 | 9 | 214 | 0.0 | 0.0 | 0.00 | 0.00 | 0.00 | 93 | 1020.9 |
| 20260903004618 | 10 | 214 | 0.0 | 0.0 | 0.00 | 0.00 | 0.00 | 93 | 1020.8 |
| 20260903001557 | 10 | 214 | 0.0 | 0.0 | 0.00 | 0.00 | 0.00 | 94 | 1020.8 |
| 20260903000041 | 10 | 214 | 0.0 | 0.0 | 0.00 | 0.00 | 0.00 | 93 | 1020.8 |
| 20260902233107 | 10 | 214 | 0.0 | 0.0 | 0.00 | 0.00 | 0.00 | 93 | 1020.9 |
| 20260902231559 | 10 | 214 | 0.0 | 0.0 | 0.00 | 0.00 | 0.00 | 93 | 1020.9 |
| 20260902224545 | 10 | 214 | 0.0 | 0.0 | 0.00 | 0.00 | 0.00 | 92 | 1020.8 |
| 20260902223033 | 10 | 214 | 0.0 | 0.0 | 0.00 | 0.00 | 0.00 | 92 | 1020.8 |
| 20260902220138 | 11 | 214 | 0.0 | 0.0 | 0.00 | 0.00 | 0.00 | 91 | 1020.4 |
| 20260902214557 | 11 | 214 | 0.0 | 0.0 | 0.00 | 0.00 | 0.00 | 91 | 1020.5 |
| 20260902213038 | 11 | 214 | 0.0 | 0.0 | 0.00 | 0.00 | 0.00 | 91 | 1020.4 |
| 20260902210053 | 12 | 214 | 0.0 | 0.0 | 0.00 | 0.00 | 0.00 | 92 | 1020.3 |
| 20260902203102 | 12 | 214 | 0.0 | 0.0 | 0.00 | 0.00 | 0.00 | 90 | 1019.9 |
| 20260902201558 | 13 | 214 | 0.0 | 0.0 | 0.00 | 0.00 | 0.00 | 90 | 1019.9 |
| 20260902194542 | 14 | 214 | 0.0 | 0.0 | 0.00 | 0.00 | 0.00 | 88 | 1019.7 |
| 20260902191634 | 15 | 214 | 0.0 | 0.0 | 0.00 | 0.00 | 0.00 | 88 | 1019.5 |
| 20260902190043 | 15 | 214 | 0.0 | 0.0 | 0.00 | 0.00 | 0.00 | 88 | 1019.3 |
| 20260902183044 | 16 | 214 | 0.0 | 0.0 | 0.00 | 0.00 | 0.00 | 85 | 1019.1 |
| 20260902181540 | 17 | 214 | 0.0 | 0.0 | 0.00 | 0.00 | 0.00 | 84 | 1018.9 |